User: anonymous   Login
Location: The Jewett Observatory
(46.7288°N, 117.1525°W)
Time: 16:11:09
(UTC-08:00)
Language:

Cosmos 1844 Rocket - Orbit

View from above orbital plane
View from above orbital plane
View from above satellite
View from above satellite

Ground track
Ground track

The orbit data is extracted from the following two-line orbital elements,

1 17974U 87041B   14330.75004404  .00000220  00000-0  13276-3 0  2666
2 17974 071.0094 076.3850 0013708 009.3928 152.2089 14.17126883424435
Epoch (UTC): 26 November 2014 18:00:03
Eccentricity: 0.0013708
inclination: 71.0094°
perigee height: 825 km
apogee height: 845 km
right ascension of ascending node: 76.3850°
argument of perigee: 9.3928°
revolutions per day: 14.17126883
mean anomaly at epoch: 152.2089°
orbit number at epoch: 42443

The dashed part of the orbit path shows where the satellite is in the earth's shadow,  

DLR